Location: Long Geng
(2.6167°N, 114.1333°E)
Time: 23:51:07
(UTC+00:00)

Cosmos 2360 Rocket - Pass Details

Date: 14 May 2021
Orbit: 835 x 844 km, 71.0° (Epoch: 19 June)

Event Time Altitude Azimuth Distance (km) Brightness Sun altitude
Exits shadow 20:06:21 27° 346° (NNW) 1,548 3.6 -30.4°
Drops below altitude 10° 20:09:02 10° 360° (N) 2,452 4.8 -29.7°
Sets 20:11:33 0° 5° (N) 3,385 5.7 -29.2°
